Weather History for KSZL - December, 2012

Change the Weather History Date:

Sunday, December 16, 2012

  Actual Average Record
Temperature  
Mean Temperature 34 °F -  
Max Temperature 39 °F 40 °F 68 °F (2006)
Min Temperature 30 °F 22 °F 1 °F (2000)
Degree Days  
Heating Degree Days 30    
Moisture  
Dew Point 36 °F    
Average Humidity 100    
Maximum Humidity 100    
Minimum Humidity 100    
Precipitation  
Precipitation 0.00 in - - ()
Sea Level Pressure  
Sea Level Pressure 29.74 in    
Wind  
Wind Speed 4 mph (NNW)    
Max Wind Speed 10 mph    
Max Gust Speed -    
Visibility 3 miles    
Events Fog    
Averages and records for this station are not official NWS values.
T = Trace of Precipitation, MM = Missing Value Source: NWS Daily Summary

Daily Weather History Graph

Daily Weather History Graph

Search for Another Location

Airport or City:

Trip Planner

Search our weather history database for the weather conditions in past years. The results will help you decide how hot, cold, wet, or windy it might be!

Date:

Astronomy

Dec. 16, 2012 Rise Set
Actual Time 7:26 AM CST 4:54 PM CST
Civil Twilight 6:56 AM CST 5:24 PM CST
Nautical Twilight 6:22 AM CST 5:57 PM CST
Astronomical Twilight 5:50 AM CST 6:29 PM CST
Moon 10:01 AM CST (12/16) 9:06 PM CST (12/16)
Length of Visible Light 10h 27m
Length of Day
9h 28m
Waxing Crescent, 16% of the Moon is Illuminated
Dec 16
Waxing Crescent
Dec 19
First Quarter
Dec 28
Full
Jan 4
Last Quarter
Jan 11
New

Hourly Weather History & Observations

Time (CST) Temp. Windchill Dew Point Humidity Pressure Visibility Wind Dir Wind Speed Gust Speed Precip Events Conditions
12:55 AM 39.6 °F 36.3 °F 39.6 °F 100% 29.73 in 10.0 mi West 4.6 mph - N/A   Clear
1:12 AM 39.2 °F 37.0 °F 39.2 °F 100% 29.73 in 8.0 mi WSW 3.5 mph - N/A   Clear
1:19 AM 37.4 °F - 37.4 °F 100% 29.72 in 2.5 mi Calm Calm - N/A   Clear
1:21 AM 37.4 °F - 37.4 °F 100% 29.72 in 1.8 mi Calm Calm - N/A   Clear
1:28 AM 37.4 °F - 37.4 °F 100% 29.72 in 0.8 mi Calm Calm - N/A   Clear
1:29 AM 37.4 °F - 37.4 °F 100% 29.72 in 0.8 mi Calm Calm - N/A   Clear
1:55 AM 36.5 °F 33.9 °F 36.5 °F 100% 29.72 in 0.5 mi SSW 3.5 mph - N/A Fog Fog
2:10 AM 35.6 °F 31.7 °F 35.6 °F 100% 29.73 in 0.2 mi SSW 4.6 mph - N/A Fog Fog
2:27 AM 35.6 °F 32.8 °F 35.6 °F 100% 29.73 in 0.5 mi WSW 3.5 mph - N/A Fog Fog
2:55 AM 34.2 °F 31.2 °F 34.2 °F 100% 29.73 in 0.5 mi SW 3.5 mph - N/A Fog Fog
2:57 AM 35.6 °F 31.7 °F 35.6 °F 100% 29.73 in 0.5 mi SW 4.6 mph - N/A Fog Fog
3:01 AM 35.6 °F 32.8 °F 35.6 °F 100% 29.73 in 1.0 mi WSW 3.5 mph - N/A   Clear
3:07 AM 35.6 °F 32.8 °F 35.6 °F 100% 29.73 in 3.0 mi WSW 3.5 mph - N/A   Clear
3:17 AM 35.6 °F 32.8 °F 35.6 °F 100% 29.73 in 1.8 mi WSW 3.5 mph - N/A   Clear
3:23 AM 33.8 °F 30.8 °F 33.8 °F 100% 29.73 in 0.5 mi SW 3.5 mph - N/A Fog Fog
3:30 AM 33.8 °F 29.6 °F 33.8 °F 100% 29.73 in 0.2 mi SSW 4.6 mph - N/A Fog Fog
3:43 AM 33.8 °F 29.6 °F 33.8 °F 100% 29.74 in 0.2 mi SSW 4.6 mph - N/A Fog Fog
3:55 AM 33.3 °F 28.9 °F 33.3 °F 100% 29.74 in 0.2 mi SSW 4.6 mph - 0.00 in Fog Fog
4:06 AM 33.8 °F 29.6 °F 33.8 °F 100% 29.73 in 0.5 mi SW 4.6 mph - N/A Fog Fog
4:12 AM 33.8 °F 30.8 °F 33.8 °F 100% 29.74 in 0.8 mi WSW 3.5 mph - N/A   Clear
4:26 AM 33.8 °F 29.6 °F 33.8 °F 100% 29.73 in 0.5 mi WSW 4.6 mph - N/A Fog Fog
4:32 AM 35.6 °F 31.7 °F 35.6 °F 100% 29.73 in 0.2 mi West 4.6 mph - N/A Fog Fog
4:42 AM 35.6 °F 31.7 °F 35.6 °F 100% 29.74 in 0.5 mi West 4.6 mph - N/A Fog Fog
4:55 AM 34.7 °F 30.6 °F 34.7 °F 100% 29.74 in 0.5 mi West 4.6 mph - N/A Fog Fog
4:59 AM 33.8 °F 29.6 °F 33.8 °F 100% 29.74 in 0.8 mi West 4.6 mph - N/A   Clear
5:00 AM 33.8 °F 29.6 °F 33.8 °F 100% 29.74 in 0.8 mi West 4.6 mph - N/A   Clear
5:13 AM 33.8 °F - 33.8 °F 100% 29.75 in 1.5 mi Calm Calm - N/A   Clear
5:26 AM 33.8 °F - 33.8 °F 100% 29.75 in 1.0 mi Calm Calm - N/A   Clear
5:29 AM 33.8 °F - 33.8 °F 100% 29.75 in 0.8 mi Calm Calm - N/A   Clear
5:31 AM 33.8 °F - 33.8 °F 100% 29.75 in 0.8 mi Calm Calm - N/A   Mist
5:42 AM 32.0 °F - 32.0 °F 100% 29.75 in 0.2 mi Calm Calm - N/A Fog Light Freezing Fog
5:55 AM 31.1 °F - 31.1 °F 100% 29.75 in 0.2 mi Calm Calm - 0.00 in Fog Light Freezing Fog
6:02 AM 30.2 °F 25.4 °F 30.2 °F 100% 29.75 in 0.2 mi SSE 4.6 mph - N/A Fog Light Freezing Fog
6:08 AM 30.2 °F 25.4 °F 30.2 °F 100% 29.76 in 0.2 mi South 4.6 mph - N/A Fog Light Freezing Fog
6:26 AM 32.0 °F - 32.0 °F 100% 29.76 in 0.2 mi Calm Calm - N/A Fog Light Freezing Fog
6:55 AM 31.3 °F - 31.3 °F 100% 29.76 in 0.5 mi Calm Calm - 0.00 in Fog Light Freezing Fog
6:57 AM 30.2 °F - 30.2 °F 100% 29.76 in 1.0 mi Calm Calm - N/A   Mist
7:08 AM 30.2 °F - 30.2 °F 100% 29.76 in 0.8 mi Calm Calm - N/A   Clear
7:23 AM 30.2 °F - 30.2 °F 100% 29.76 in 0.8 mi Calm Calm - N/A   Clear
7:24 AM 30.2 °F 26.7 °F 30.2 °F 100% 29.76 in 1.0 mi North 3.5 mph - N/A   Clear
7:31 AM 30.2 °F 26.7 °F 30.2 °F 100% 29.76 in 3.0 mi North 3.5 mph - N/A   Clear
7:43 AM 30.2 °F 25.4 °F 30.2 °F 100% 29.76 in 7.0 mi NNW 4.6 mph - N/A   Scattered Clouds
7:55 AM 30.6 °F 27.1 °F 30.6 °F 100% 29.76 in 6.0 mi North 3.5 mph - N/A   Mostly Cloudy
7:57 AM 30.2 °F 26.7 °F 30.2 °F 100% 29.76 in 4.0 mi North 3.5 mph - N/A   Mostly Cloudy
7:59 AM 30.2 °F 26.7 °F 30.2 °F 100% 29.77 in 2.5 mi North 3.5 mph - N/A   Mostly Cloudy
8:09 AM 32.0 °F 27.5 °F 32.0 °F 100% 29.77 in 0.5 mi NNE 4.6 mph - N/A Fog Light Freezing Fog
8:10 AM 32.0 °F 26.4 °F 32.0 °F 100% 29.77 in 0.2 mi North 5.8 mph - N/A Fog Light Freezing Fog
8:32 AM - - - N/A% - - ENE 3.5 mph - N/A   Unknown
8:55 AM 34.7 °F - 34.7 °F 100% 29.77 in 0.2 mi Calm Calm - N/A Fog Fog
8:59 AM 35.6 °F 31.7 °F 35.6 °F 100% 29.77 in 0.2 mi NE 4.6 mph - N/A Fog Fog
9:11 AM 35.6 °F 29.9 °F 35.6 °F 100% 29.77 in 0.2 mi NE 6.9 mph - N/A Fog Fog
9:55 AM 36.3 °F 30.1 °F 36.3 °F 100% 29.79 in 0.2 mi North 8.1 mph - 0.00 in Fog Fog
10:55 AM 37.8 °F 33.3 °F 37.8 °F 100% 29.76 in 0.2 mi NE 5.8 mph - N/A Fog Fog
11:44 AM 39.2 °F 35.9 °F 39.2 °F 100% 29.73 in 0.2 mi ENE 4.6 mph - N/A Fog Fog
11:55 AM 39.0 °F 35.7 °F 39.0 °F 100% 29.72 in 0.2 mi NE 4.6 mph - N/A Fog Fog
12:01 PM 39.2 °F 35.9 °F 39.2 °F 100% 29.72 in 0.2 mi NNE 4.6 mph - N/A Fog Fog
12:15 PM 39.2 °F 35.0 °F 39.2 °F 100% 29.72 in 0.2 mi North 5.8 mph - N/A Fog Fog
12:18 PM 39.2 °F 35.9 °F 39.2 °F 100% 29.72 in 0.2 mi North 4.6 mph - N/A Fog Fog
12:25 PM 39.2 °F 35.0 °F 39.2 °F 100% 29.72 in 0.5 mi North 5.8 mph - N/A Fog Fog
12:27 PM 39.2 °F 35.0 °F 39.2 °F 100% 29.72 in 0.5 mi North 5.8 mph - N/A Fog Fog
12:55 PM 39.6 °F 34.7 °F 39.6 °F 100% 29.71 in 0.5 mi North 6.9 mph - N/A Fog Fog
1:06 PM 39.2 °F 34.2 °F 39.2 °F 100% 29.70 in 0.8 mi North 6.9 mph - N/A   Mist
1:20 PM 39.2 °F 34.2 °F 39.2 °F 100% 29.70 in 1.5 mi North 6.9 mph - N/A   Overcast
1:30 PM 39.2 °F 34.2 °F 39.2 °F 100% 29.70 in 2.0 mi NNE 6.9 mph - N/A   Overcast
1:38 PM 39.2 °F 33.0 °F 39.2 °F 100% 29.70 in 2.0 mi NNE 9.2 mph - N/A   Overcast
1:55 PM 39.9 °F 33.9 °F 39.9 °F 100% 29.70 in 3.0 mi North 9.2 mph - N/A   Overcast
2:18 PM 39.2 °F 33.0 °F 39.2 °F 100% 29.70 in 3.0 mi North 9.2 mph - N/A   Overcast
2:38 PM 39.2 °F 34.2 °F 39.2 °F 100% 29.70 in 5.0 mi North 6.9 mph - N/A   Overcast
2:55 PM 39.6 °F 34.0 °F 39.6 °F 100% 29.70 in 5.0 mi North 8.1 mph - N/A   Overcast
3:11 PM 39.2 °F 33.6 °F 39.2 °F 100% 29.71 in 6.0 mi North 8.1 mph - N/A   Overcast
3:55 PM 39.4 °F 33.8 °F 39.4 °F 100% 29.72 in 7.0 mi NNE 8.1 mph - N/A   Overcast
4:55 PM 39.4 °F 36.1 °F 39.4 °F 100% 29.74 in 7.0 mi NNE 4.6 mph - N/A   Overcast
5:45 PM 39.2 °F 35.9 °F 39.2 °F 100% 29.75 in 10.0 mi NNE 4.6 mph - N/A   Overcast
5:55 PM 39.4 °F 35.2 °F 39.4 °F 100% 29.75 in 10.0 mi NE 5.8 mph - N/A   Overcast
6:34 PM 39.2 °F 35.0 °F 39.2 °F 100% 29.78 in 10.0 mi North 5.8 mph - N/A   Overcast
6:55 PM 39.6 °F 36.3 °F 39.6 °F 100% 29.78 in 10.0 mi North 4.6 mph - N/A   Overcast
7:55 PM 39.6 °F 34.0 °F 39.6 °F 100% 29.77 in 9.0 mi North 8.1 mph - N/A   Overcast
8:02 PM 39.2 °F 33.6 °F 39.2 °F 100% 29.77 in 8.0 mi North 8.1 mph - N/A   Overcast
8:55 PM 38.7 °F 32.4 °F 38.7 °F 100% 29.78 in 9.0 mi North 9.2 mph - N/A   Overcast
9:14 PM 39.2 °F 32.5 °F 39.2 °F 100% 29.78 in 7.0 mi North 10.4 mph - N/A   Overcast
9:34 PM 37.4 °F 31.4 °F 37.4 °F 100% 29.78 in 8.0 mi North 8.1 mph - N/A   Overcast
9:55 PM 37.9 °F 32.1 °F 37.9 °F 100% 29.78 in 8.0 mi NNE 8.1 mph - N/A   Overcast
10:29 PM 37.4 °F 32.1 °F 37.4 °F 100% 29.78 in 10.0 mi NNE 6.9 mph - N/A   Overcast
10:55 PM 37.8 °F 33.3 °F 37.8 °F 100% 29.79 in 10.0 mi NNE 5.8 mph - N/A   Overcast
11:39 PM 37.4 °F 34.9 °F 37.4 °F 100% 29.79 in 10.0 mi North 3.5 mph - N/A   Overcast
11:55 PM 37.8 °F 35.3 °F 37.8 °F 100% 29.79 in 10.0 mi North 3.5 mph - N/A   Overcast